Regional Weather Roundup
Issued by NWS

Home | Current Version | Previous Version | Graphics & Text | Print | Product List | Glossary On
Versions: 1 2 3 4 5 6 7 8 9 10 11 12 13 14 15 16 17 18 19 20 21 22 23 24 25 26 27 28 29 30 31 32 33 34 35 36 37 38 39 40 41 42 43 44 45 46 47 48 49 50
000
ASUS43 KLSX 030907
RWRMO

WEATHER SUMMARY FOR MISSOURI
NATIONAL WEATHER SERVICE SPRINGFIELD MO
400 AM CDT FRI JUL 03 2015

NOTE: "FAIR" INDICATES FEW OR NO CLOUDS BELOW 12,000 FEET WITH NO
       SIGNIFICANT WEATHER AND/OR OBSTRUCTIONS TO VISIBILITY.
       CURRENT SKY AND/OR WEATHER CONDITIONS ARE NOT AVAILABLE FOR
       CHILLICOTHE AND FARMINGTON.

MOZ001>031-035>038-043-044-053-054-031000-
...NORTHERN AND WESTERN MISSOURI...

CITY           SKY/WX    TMP DP  RH WIND       PRES   REMARKS
KANSAS CTY INT MOCLDY    66  63  90 NE8       29.93S
KANSAS C DTWN  CLOUDY    68  62  81 NE6       29.92R
LEE`S SUMMIT   CLOUDY    67  60  78 E6        29.92F
ST JOSEPH      CLOUDY    65  61  87 N3        29.94S
CHILLICOTHE      N/A     62  60  93 N3        29.96S
KIRKSVILLE     LGT RAIN  63  60  90 N5        29.95F

$$
MOZ066>068-077>081-088>096-101>105-031000-
...SOUTHWEST MISSOURI...

CITY           SKY/WX    TMP DP  RH WIND       PRES   REMARKS
SPRINGFIELD    CLOUDY    71  69  93 CALM      29.91R FOG
JOPLIN         MOCLDY    71  69  93 SW3       29.91S

$$
MOZ032>034-039>042-045>050-055>058-069>072-031000-
...CENTRAL MISSOURI...

CITY           SKY/WX    TMP DP  RH WIND       PRES   REMARKS
COLUMBIA       CLOUDY    66  62  87 NE5       29.92S
JEFFERSON CITY CLOUDY    67  62  84 NE3       29.91F
ROLLA          CLOUDY    66  63  90 E5        29.91R
SEDALIA        MOCLDY    67  62  84 CALM      29.93S
WHITEMAN AFB   MOCLDY    67  64  90 NE5       29.91S
WARRENSBURG    CLOUDY    64  61  88 N6        29.92S
OSAGE BEACH    CLOUDY    68  64  88 CALM      29.91S

$$
MOZ051-052-059>065-031000-
...EAST CENTRAL MISSOURI...

CITY           SKY/WX    TMP DP  RH WIND       PRES   REMARKS
ST LOUIS INTL  MOCLDY    68  61  78 NW3       29.90S
SPIRIT OF STL  CLOUDY    67  64  90 W5        29.89R
ST CHARLES     CLEAR     66  62  87 N6        29.89S

$$
MOZ072>076-082>087-097>100-106>115-031000-
...SOUTH CENTRAL AND SOUTHEAST MISSOURI...

CITY           SKY/WX    TMP DP  RH WIND       PRES   REMARKS
CAPE GIRARDEAU CLOUDY    71  70  96 NW6       29.84F
FARMINGTON     MOCLDY    66  63  88 N6        29.93S
POPLAR BLUFF   CLOUDY    71  70  96 NW5       29.85S
WEST PLAINS    MOCLDY    70  67  90 NE3       29.92S

$$



USA.gov is the U.S. government's official web portal to all federal, state and local government web resources and services.